| time (UTC) | temp F | wind direction | speed MPH | gust MPH | rain 1hr in | rain 24hr in | rain mn in | humidity % | barometer mb |
| 20260906051526 | 63 | 21 | 4.0 | 8.0 | 0.00 | 0.00 | 0.00 | 88 | 1011.1 |
| 20260906050116 | 63 | 360 | 5.0 | 8.0 | 0.00 | 0.00 | 0.00 | 89 | 1011.0 |
| 20260906044539 | 63 | 18 | 4.0 | 8.0 | 0.00 | 0.00 | 0.00 | 89 | 1010.9 |
| 20260906043112 | 63 | 349 | 2.0 | 7.0 | 0.00 | 0.00 | 0.00 | 89 | 1010.8 |
| 20260906041542 | 63 | 21 | 1.0 | 7.0 | 0.00 | 0.00 | 0.00 | 89 | 1010.7 |
| 20260906040009 | 63 | 358 | 2.0 | 7.0 | 0.00 | 0.00 | 0.00 | 88 | 1010.7 |
| 20260906034553 | 63 | 8 | 2.0 | 6.0 | 0.00 | 0.00 | 0.00 | 88 | 1010.8 |
| 20260906024536 | 64 | 6 | 2.0 | 6.0 | 0.00 | 0.00 | 0.00 | 87 | 1010.7 |
| 20260906023131 | 64 | 2 | 3.0 | 8.0 | 0.00 | 0.00 | 0.00 | 87 | 1010.7 |
| 20260906021524 | 64 | 19 | 1.0 | 5.0 | 0.00 | 0.00 | 0.00 | 87 | 1010.7 |
| 20260906020107 | 64 | 42 | 2.0 | 8.0 | 0.00 | 0.00 | 0.00 | 87 | 1010.6 |
| 20260906014543 | 64 | 25 | 1.0 | 7.0 | 0.00 | 0.00 | 0.00 | 87 | 1010.7 |
| 20260906013004 | 64 | 46 | 2.0 | 7.0 | 0.00 | 0.00 | 0.00 | 87 | 1010.7 |
| 20260906011552 | 64 | 51 | 0.0 | 6.0 | 0.00 | 0.00 | 0.00 | 87 | 1010.7 |
| 20260906010009 | 63 | 58 | 2.0 | 6.0 | 0.00 | 0.00 | 0.00 | 87 | 1010.6 |
| 20260906004600 | 63 | 58 | 1.0 | 6.0 | 0.00 | 0.00 | 0.00 | 86 | 1010.5 |
| 20260906003012 | 64 | 52 | 2.0 | 8.0 | 0.00 | 0.00 | 0.00 | 86 | 1010.4 |
| 20260906001550 | 64 | 31 | 3.0 | 6.0 | 0.00 | 0.00 | 0.00 | 86 | 1010.1 |
| 20260906000017 | 64 | 45 | 2.0 | 5.0 | 0.00 | 0.00 | 0.00 | 86 | 1010.0 |
| 20260905234556 | 64 | 66 | 1.0 | 5.0 | 0.00 | 0.00 | 0.00 | 85 | 1010.0 |
| 20260905233013 | 64 | 63 | 1.0 | 6.0 | 0.00 | 0.00 | 0.00 | 84 | 1010.1 |
| 20260905231536 | 64 | 52 | 3.0 | 9.0 | 0.00 | 0.00 | 0.00 | 83 | 1010.1 |
| 20260905230109 | 65 | 53 | 5.0 | 13.0 | 0.00 | 0.00 | 0.00 | 82 | 1010.1 |
| 20260905224538 | 65 | 102 | 4.0 | 8.0 | 0.00 | 0.00 | 0.00 | 83 | 1010.2 |
| 20260905223102 | 65 | 71 | 5.0 | 10.0 | 0.00 | 0.00 | 0.00 | 82 | 1010.0 |
| 20260905221536 | 66 | 54 | 6.0 | 12.0 | 0.00 | 0.00 | 0.00 | 82 | 1010.1 |
| 20260905220118 | 66 | 64 | 7.0 | 17.0 | 0.00 | 0.00 | 0.00 | 81 | 1009.6 |
| 20260905214526 | 67 | 74 | 8.0 | 16.0 | 0.00 | 0.00 | 0.00 | 81 | 1009.4 |
| 20260905213054 | 67 | 33 | 7.0 | 15.0 | 0.00 | 0.00 | 0.00 | 81 | 1009.0 |
| 20260905211523 | 68 | 37 | 5.0 | 13.0 | 0.00 | 0.00 | 0.00 | 79 | 1008.9 |
| 20260905210104 | 68 | 78 | 5.0 | 14.0 | 0.00 | 0.00 | 0.00 | 80 | 1008.7 |
| 20260905204525 | 68 | 101 | 7.0 | 15.0 | 0.00 | 0.00 | 0.00 | 80 | 1008.5 |
| 20260905203051 | 69 | 93 | 5.0 | 18.0 | 0.00 | 0.00 | 0.00 | 82 | 1008.4 |
| 20260905201507 | 70 | 15 | 4.0 | 13.0 | 0.00 | 0.00 | 0.00 | 80 | 1008.2 |
| 20260905200052 | 70 | 63 | 8.0 | 13.0 | 0.00 | 0.00 | 0.00 | 79 | 1008.1 |
| 20260905194505 | 70 | 79 | 5.0 | 15.0 | 0.00 | 0.00 | 0.00 | 79 | 1008.1 |
| 20260905193043 | 70 | 79 | 5.0 | 13.0 | 0.00 | 0.00 | 0.00 | 80 | 1008.2 |
| 20260905191507 | 71 | 72 | 7.0 | 14.0 | 0.00 | 0.00 | 0.00 | 77 | 1008.1 |
| 20260905190052 | 71 | 31 | 5.0 | 15.0 | 0.00 | 0.00 | 0.00 | 79 | 1008.2 |
| 20260905184513 | 70 | 76 | 6.0 | 14.0 | 0.00 | 0.00 | 0.00 | 79 | 1008.2 |
| 20260905183057 | 71 | 21 | 6.0 | 16.0 | 0.00 | 0.00 | 0.00 | 78 | 1008.3 |
| 20260905181520 | 72 | 57 | 6.0 | 14.0 | 0.00 | 0.00 | 0.00 | 77 | 1008.3 |
| 20260905180053 | 71 | 50 | 5.0 | 15.0 | 0.00 | 0.00 | 0.00 | 78 | 1008.3 |
| 20260905174516 | 71 | 77 | 5.0 | 13.0 | 0.00 | 0.00 | 0.00 | 77 | 1008.2 |
| 20260905154519 | 72 | 67 | 5.0 | 13.0 | 0.00 | 0.00 | 0.00 | 76 | 1007.6 |
| 20260905153059 | 73 | 53 | 5.0 | 13.0 | 0.00 | 0.00 | 0.00 | 75 | 1007.4 |
| 20260905151509 | 73 | 42 | 6.0 | 12.0 | 0.00 | 0.00 | 0.00 | 74 | 1007.5 |
| 20260905150040 | 73 | 81 | 6.0 | 13.0 | 0.00 | 0.00 | 0.00 | 76 | 1007.3 |
| 20260905144503 | 72 | 77 | 4.0 | 11.0 | 0.00 | 0.00 | 0.00 | 78 | 1007.4 |
| 20260905143041 | 72 | 51 | 5.0 | 12.0 | 0.00 | 0.00 | 0.00 | 77 | 1007.6 |
| 20260905141602 | 71 | 16 | 4.0 | 11.0 | 0.00 | 0.00 | 0.00 | 79 | 1007.5 |
| 20260905140028 | 71 | 48 | 4.0 | 9.0 | 0.00 | 0.00 | 0.00 | 79 | 1007.7 |
| 20260905134610 | 71 | 39 | 4.0 | 10.0 | 0.00 | 0.00 | 0.00 | 80 | 1007.6 |
| 20260905133036 | 71 | 37 | 4.0 | 9.0 | 0.00 | 0.00 | 0.00 | 80 | 1007.6 |
| 20260905131505 | 70 | 21 | 5.0 | 11.0 | 0.00 | 0.00 | 0.00 | 80 | 1007.5 |
| 20260905130050 | 70 | 79 | 5.0 | 10.0 | 0.00 | 0.00 | 0.00 | 81 | 1007.5 |
| 20260905124509 | 69 | 34 | 4.0 | 10.0 | 0.00 | 0.00 | 0.00 | 82 | 1007.2 |
| 20260905123043 | 69 | 37 | 6.0 | 13.0 | 0.00 | 0.00 | 0.00 | 82 | 1007.0 |
| 20260905121509 | 68 | 23 | 2.0 | 11.0 | 0.00 | 0.00 | 0.00 | 83 | 1006.8 |
| 20260905120048 | 67 | 23 | 5.0 | 10.0 | 0.00 | 0.00 | 0.00 | 84 | 1006.8 |
| 20260905114516 | 66 | 14 | 2.0 | 9.0 | 0.00 | 0.00 | 0.00 | 86 | 1006.9 |
| 20260905113101 | 66 | 10 | 4.0 | 10.0 | 0.00 | 0.00 | 0.00 | 86 | 1006.8 |
| 20260905111551 | 65 | 45 | 2.0 | 10.0 | 0.00 | 0.00 | 0.00 | 87 | 1006.7 |
| 20260905110004 | 65 | 8 | 4.0 | 11.0 | 0.00 | 0.00 | 0.00 | 88 | 1006.7 |
| 20260905104534 | 64 | 29 | 4.0 | 11.0 | 0.00 | 0.00 | 0.00 | 88 | 1006.6 |
| 20260905103002 | 64 | 8 | 4.0 | 9.0 | 0.00 | 0.00 | 0.00 | 88 | 1006.4 |
| 20260905101544 | 64 | 33 | 4.0 | 10.0 | 0.00 | 0.00 | 0.00 | 88 | 1006.1 |
| 20260905100018 | 64 | 2 | 5.0 | 11.0 | 0.00 | 0.00 | 0.00 | 88 | 1006.0 |
| 20260905094550 | 65 | 3 | 5.0 | 11.0 | 0.00 | 0.00 | 0.00 | 87 | 1005.9 |
| 20260905093009 | 65 | 38 | 5.0 | 9.0 | 0.00 | 0.00 | 0.00 | 88 | 1005.9 |
| 20260905091539 | 65 | 25 | 4.0 | 11.0 | 0.00 | 0.00 | 0.00 | 87 | 1006.0 |
| 20260905090110 | 65 | 23 | 4.0 | 9.0 | 0.00 | 0.00 | 0.00 | 87 | 1006.1 |
| 20260905084529 | 65 | 1 | 3.0 | 9.0 | 0.00 | 0.00 | 0.00 | 87 | 1006.1 |
| 20260905083057 | 66 | 15 | 3.0 | 10.0 | 0.00 | 0.00 | 0.00 | 86 | 1006.1 |
| 20260905081529 | 66 | 35 | 3.0 | 9.0 | 0.00 | 0.00 | 0.00 | 86 | 1006.1 |
| 20260905080003 | 66 | 18 | 3.0 | 11.0 | 0.00 | 0.00 | 0.00 | 86 | 1006.0 |
| 20260905074545 | 66 | 10 | 2.0 | 7.0 | 0.00 | 0.00 | 0.00 | 85 | 1006.1 |
| 20260905070031 | 66 | 16 | 4.0 | 11.0 | 0.00 | 0.00 | 0.00 | 84 | 1006.5 |
| 20260905064502 | 67 | 351 | 3.0 | 8.0 | 0.00 | 0.00 | 0.00 | 84 | 1006.6 |
| 20260905063042 | 68 | 8 | 2.0 | 8.0 | 0.00 | 0.00 | 0.00 | 83 | 1006.9 |
| 20260905061511 | 68 | 29 | 2.0 | 8.0 | 0.00 | 0.00 | 0.00 | 81 | 1006.9 |
| 20260905060053 | 68 | 335 | 1.0 | 6.0 | 0.00 | 0.00 | 0.00 | 82 | 1006.9 |
| 20260905054539 | 68 | 357 | 1.0 | 6.0 | 0.00 | 0.00 | 0.00 | 82 | 1006.9 |
| 20260905053140 | 68 | 9 | 1.0 | 6.0 | 0.00 | 0.00 | 0.00 | 82 | 1006.9 |